Погода в Иловайске

Украина / Донецкая область     47°55′29″N   38°11′52″E
темп.,
°C
ветер,
м/с
пор.,
м/с
влажн.,
%
обл.,
%
осадки,
мм/ч
давл.,
гПа
погр.,
м
20 мая, пт
пт2000:00+8ссз348999 0.0 101766
03:00+9зсз2284100 0.0 101620
06:00+10з378275 0.0 1017172
09:00+15сз696395 0.1 1017916
12:00+18сз68476 0.0 10162081
15:00+17сз695595 0.0 10161346
18:00+16зсз51060100 0.1 1016385
21:00+13зсз2274100 0.1 101712
21 мая, сб
сб2100:00+12зюз1181100 0.1 101622
03:00+12з369299 0.1 1015144
06:00+13ююз2991100 0.1 1013361
09:00+15зюз51277100 0.1 1011586
12:00+21зюз91258100 0.0 10091534
15:00+21з91466100 1.1 10081694
18:00+19з71376100 2.1 1007793
21:00+16зюз4888100 2.8 1008346
22 мая, вс
вс2200:00+16зюз61396100 1.2 1006762
03:00+14зюз6149562 1.3 1005520
06:00+14зюз6129298 0.0 1004662
09:00+16з71069100 0.1 10031238
12:00+18з81053100 0.2 10011750
15:00+16зсз7126057 0.2 10011271
18:00+15зсз8146622 0.3 10011603
21:00+12сз597581 0.3 1002735
23 мая, пн
пн2300:00+11зсз487399 0.0 1002947
03:00+11зсз3582100 0.1 1003585
06:00+10зсз3688100 0.4 1003478
09:00+10ссв3386100 0.6 1005465
12:00+8св5888100 0.3 1006527
15:00+9св3785100 0.6 1007528
18:00+10св3878100 0.3 1007451
21:00+9с3577100 0.3 1009117
24 мая, вт
вт2400:00+9ссв367895 0.1 1010121
03:00+7с34838 0.1 101151
06:00+7ссз368150 0.0 1012162
09:00+12с455640 0.0 10131332
12:00+15с454184 0.0 10132397
15:00+14ссз554997 0.0 10141630
18:00+15сз3552100 0.0 10151297
21:00+12з2358100 0.0 101736